When you browse on this site, cookies collect data to enhance your experience and personalize the content and advertising you see.
Visit our Privacy Policy to learn more. By continuing to use the site, you agree to this use of cookies and data.
  • In Romania
  • List of Countries
  • For 7 days
  • Water Temperature
  • Weather Map
  • Weather Widgets
  • user-avatar
    Login

    Hourly Weather Mayrhofen

    Today, 2 June, Tuesday

    Time Temperature Precipitation Wind Pressure Humidity
    00:00 +4°C° 0 mm 1 mps 617 mmHg 95%
    01:00 +4°C° 0 mm 1 mps 617 mmHg 96%
    02:00 +4°C° 0 mm 1 mps 617 mmHg 95%
    03:00 +4°C° 0 mm 1 mps 616 mmHg 95%
    04:00 +3°C° 0 mm 1 mps 616 mmHg 94%
    05:00 +6°C° 0 mm 1 mps 617 mmHg 86%
    06:00 +8°C° 0 mm 1 mps 618 mmHg 79%
    07:00 +10°C° 0 mm 1 mps 619 mmHg 67%
    08:00 +12°C° 0 mm 2 mps 619 mmHg 59%
    09:00 +13°C° 0 mm 2 mps 620 mmHg 52%
    10:00 +15°C° 0 mm 2 mps 620 mmHg 44%
    11:00 +14°C° 0.1 mm 3 mps 620 mmHg 44%
    12:00 +14°C° 0.1 mm 3 mps 620 mmHg 44%
    13:00 +16°C° 0 mm 3 mps 620 mmHg 43%
    14:00 +14°C° 0.4 mm 3 mps 619 mmHg 46%
    15:00 +14°C° 0.4 mm 3 mps 619 mmHg 49%
    16:00 +14°C° 0.4 mm 3 mps 618 mmHg 52%
    17:00 +13°C° 0.1 mm 2 mps 618 mmHg 59%
    18:00 +12°C° 0.1 mm 2 mps 617 mmHg 66%
    19:00 +10°C° 0.1 mm 2 mps 617 mmHg 73%
    20:00 +8°C° 0 mm 2 mps 616 mmHg 79%
    21:00 +7°C° 0 mm 1 mps 615 mmHg 84%
    22:00 +5°C° 0 mm 1 mps 614 mmHg 90%
    23:00 +5°C° 0 mm 1 mps 614 mmHg 90%

    Tomorrow, 3 June, Wednesday

    Time Temperature Precipitation Wind Pressure Humidity
    00:00 +4°C° 0 mm 1 mps 614 mmHg 90%
    01:00 +4°C° 0 mm 1 mps 614 mmHg 90%
    02:00 +4°C° 0 mm 1 mps 613 mmHg 88%
    03:00 +4°C° 0 mm 1 mps 613 mmHg 85%
    04:00 +4°C° 0 mm 1 mps 612 mmHg 83%
    05:00 +6°C° 0 mm 1 mps 613 mmHg 73%
    06:00 +7°C° 0 mm 0 mps 614 mmHg 63%
    07:00 +10°C° 0 mm 0 mps 615 mmHg 54%
    08:00 +11°C° 0 mm 0 mps 615 mmHg 47%
    09:00 +13°C° 0 mm 0 mps 615 mmHg 40%
    10:00 +15°C° 0 mm 0 mps 616 mmHg 33%
    11:00 +16°C° 0 mm 1 mps 616 mmHg 31%
    12:00 +18°C° 0 mm 1 mps 615 mmHg 29%
    13:00 +19°C° 0 mm 1 mps 615 mmHg 28%
    14:00 +19°C° 0 mm 1 mps 615 mmHg 31%
    15:00 +18°C° 0 mm 1 mps 614 mmHg 34%
    16:00 +18°C° 0 mm 1 mps 614 mmHg 37%
    17:00 +15°C° 0.1 mm 1 mps 613 mmHg 48%
    18:00 +14°C° 0.1 mm 1 mps 612 mmHg 59%
    19:00 +12°C° 0.1 mm 1 mps 611 mmHg 70%
    20:00 +11°C° 0.1 mm 1 mps 611 mmHg 75%
    21:00 +8°C° 0.1 mm 2 mps 610 mmHg 79%
    22:00 +7°C° 0.1 mm 2 mps 610 mmHg 84%
    23:00 +6°C° 0 mm 2 mps 610 mmHg 86%

    Day after tomorrow, 4 June, Thursday

    Time Temperature Precipitation Wind Pressure Humidity
    00:00 +6°C° 0 mm 2 mps 609 mmHg 88%
    01:00 +6°C° 0 mm 2 mps 609 mmHg 90%
    02:00 +6°C° 0 mm 2 mps 609 mmHg 91%
    03:00 +6°C° 0 mm 2 mps 609 mmHg 92%
    04:00 +6°C° 0 mm 2 mps 609 mmHg 92%
    05:00 +8°C° 0.2 mm 1 mps 609 mmHg 90%
    06:00 +8°C° 0.2 mm 1 mps 609 mmHg 88%
    07:00 +9°C° 0.2 mm 1 mps 609 mmHg 86%
    08:00 +9°C° 0.3 mm 1 mps 609 mmHg 86%
    09:00 +9°C° 0.3 mm 2 mps 608 mmHg 86%
    10:00 +9°C° 0.3 mm 2 mps 608 mmHg 86%
    11:00 +9°C° 0.3 mm 2 mps 608 mmHg 83%
    12:00 +10°C° 0.3 mm 2 mps 608 mmHg 80%
    13:00 +12°C° 0.3 mm 2 mps 608 mmHg 77%
    14:00 +10°C° 0.9 mm 2 mps 608 mmHg 81%
    15:00 +9°C° 0.9 mm 2 mps 607 mmHg 85%
    16:00 +8°C° 0.9 mm 2 mps 607 mmHg 89%
    17:00 +8°C° 0.6 mm 2 mps 607 mmHg 91%
    18:00 +7°C° 0.6 mm 2 mps 606 mmHg 92%
    19:00 +7°C° 0.6 mm 2 mps 606 mmHg 94%
    20:00 +7°C° 1.7 mm 1 mps 606 mmHg 95%
    21:00 +7°C° 1.7 mm 1 mps 606 mmHg 97%
    22:00 +6°C° 1.7 mm 1 mps 606 mmHg 98%
    23:00 +6°C° 1.8 mm 1 mps 605 mmHg 98%

    5 June, Friday

    Time Temperature Precipitation Wind Pressure Humidity
    00:00 +6°C° 1.8 mm 1 mps 605 mmHg 98%
    01:00 +4°C° 1.8 mm 2 mps 605 mmHg 98%
    02:00 +4°C° 1.7 mm 2 mps 605 mmHg 98%
    03:00 +4°C° 1.7 mm 2 mps 605 mmHg 98%
    04:00 +4°C° 1.7 mm 2 mps 604 mmHg 98%
    05:00 +4°C° 1 mm 2 mps 605 mmHg 98%
    06:00 +5°C° 1 mm 1 mps 605 mmHg 97%
    07:00 +5°C° 1 mm 1 mps 606 mmHg 97%
    08:00 +5°C° 0.9 mm 1 mps 606 mmHg 96%
    09:00 +4°C° 0.9 mm 2 mps 606 mmHg 95%
    10:00 +5°C° 0.9 mm 2 mps 607 mmHg 94%
    11:00 +5°C° 0.2 mm 2 mps 607 mmHg 91%
    12:00 +6°C° 0.2 mm 2 mps 608 mmHg 88%
    13:00 +8°C° 0.2 mm 1 mps 608 mmHg 85%
    14:00 +9°C° 0.1 mm 1 mps 608 mmHg 82%
    15:00 +9°C° 0.1 mm 1 mps 609 mmHg 78%
    16:00 +10°C° 0.1 mm 1 mps 609 mmHg 75%
    17:00 +9°C° 0.1 mm 1 mps 609 mmHg 77%
    18:00 +9°C° 0.1 mm 1 mps 609 mmHg 80%
    19:00 +8°C° 0.1 mm 1 mps 610 mmHg 83%
    20:00 +7°C° 0 mm 1 mps 610 mmHg 85%
    21:00 +5°C° 0 mm 0 mps 610 mmHg 88%
    22:00 +4°C° 0 mm 0 mps 610 mmHg 91%
    23:00 +5°C° 0 mm 1 mps 610 mmHg 91%

    6 June, Saturday

    Time Temperature Precipitation Wind Pressure Humidity
    00:00 +5°C° 0 mm 1 mps 610 mmHg 91%
    01:00 +5°C° 0 mm 1 mps 610 mmHg 91%
    02:00 +5°C° 0.1 mm 1 mps 610 mmHg 92%
    03:00 +5°C° 0.1 mm 1 mps 610 mmHg 93%
    04:00 +5°C° 0.1 mm 1 mps 610 mmHg 94%
    05:00 +6°C° 0 mm 1 mps 611 mmHg 92%
    06:00 +7°C° 0 mm 1 mps 612 mmHg 90%
    07:00 +8°C° 0 mm 1 mps 612 mmHg 87%
    08:00 +9°C° 0.1 mm 1 mps 613 mmHg 85%
    09:00 +10°C° 0.1 mm 1 mps 613 mmHg 82%
    10:00 +11°C° 0.1 mm 1 mps 614 mmHg 79%
    11:00 +12°C° 0.2 mm 2 mps 614 mmHg 77%
    12:00 +12°C° 0.2 mm 2 mps 614 mmHg 75%
    13:00 +13°C° 0.2 mm 2 mps 614 mmHg 74%
    14:00 +12°C° 0.4 mm 2 mps 614 mmHg 76%
    15:00 +12°C° 0.4 mm 2 mps 613 mmHg 79%
    16:00 +12°C° 0.4 mm 2 mps 613 mmHg 82%
    17:00 +10°C° 0.5 mm 2 mps 613 mmHg 86%
    18:00 +11°C° 0.5 mm 1 mps 613 mmHg 90%
    19:00 +10°C° 0.5 mm 1 mps 613 mmHg 95%
    20:00 +9°C° 0.4 mm 1 mps 613 mmHg 96%
    21:00 +9°C° 0.4 mm 1 mps 613 mmHg 97%
    22:00 +8°C° 0.4 mm 1 mps 613 mmHg 98%
    23:00 +8°C° 0.4 mm 1 mps 613 mmHg 98%

    7 June, Sunday

    Time Temperature Precipitation Wind Pressure Humidity
    00:00 +8°C° 0.4 mm 1 mps 612 mmHg 98%
    01:00 +8°C° 0.4 mm 1 mps 612 mmHg 98%
    02:00 +8°C° 0.6 mm 1 mps 612 mmHg 98%
    03:00 +8°C° 0.6 mm 1 mps 612 mmHg 98%
    04:00 +8°C° 0.6 mm 1 mps 612 mmHg 98%
    05:00 +8°C° 1.5 mm 1 mps 612 mmHg 98%
    06:00 +8°C° 1.5 mm 1 mps 612 mmHg 98%
    07:00 +8°C° 1.5 mm 1 mps 612 mmHg 97%
    08:00 +8°C° 0.8 mm 1 mps 612 mmHg 95%
    09:00 +9°C° 0.8 mm 1 mps 612 mmHg 93%
    10:00 +8°C° 0.8 mm 2 mps 612 mmHg 91%
    11:00 +10°C° 0.2 mm 2 mps 613 mmHg 84%
    12:00 +13°C° 0.2 mm 2 mps 613 mmHg 78%
    13:00 +14°C° 0.2 mm 2 mps 614 mmHg 71%
    14:00 +13°C° 1.3 mm 2 mps 613 mmHg 78%
    15:00 +10°C° 1.3 mm 2 mps 613 mmHg 85%
    16:00 +10°C° 1.3 mm 1 mps 613 mmHg 93%
    17:00 +8°C° 1.4 mm 2 mps 613 mmHg 94%
    18:00 +7°C° 1.4 mm 2 mps 613 mmHg 96%
    19:00 +6°C° 1.4 mm 2 mps 613 mmHg 97%
    20:00 +5°C° 1.1 mm 2 mps 613 mmHg 97%
    21:00 +5°C° 1.1 mm 2 mps 614 mmHg 97%
    22:00 +4°C° 1.1 mm 2 mps 614 mmHg 97%
    23:00 +4°C° 1.3 mm 2 mps 614 mmHg 98%
    Show more